TimeCDT,TemperatureF,Dew PointF,Humidity,Sea Level PressureIn,VisibilityMPH,Wind Direction,Wind SpeedMPH,Gust SpeedMPH,PrecipitationIn,Events,Conditions,WindDirDegrees,DateUTC
12:53 AM,45.0,27.0,49,29.94,6.0,Calm,Calm,-,N/A,,Haze,0,2012-11-01 05:53:00
1:53 AM,44.1,27.0,51,29.93,10.0,Calm,Calm,-,N/A,,Overcast,0,2012-11-01 06:53:00
2:53 AM,44.1,28.9,55,29.93,10.0,WNW,4.6,-,N/A,,Mostly Cloudy,300,2012-11-01 07:53:00
3:53 AM,43.0,28.9,58,29.92,10.0,NNW,5.8,-,N/A,,Overcast,330,2012-11-01 08:53:00
4:53 AM,43.0,30.9,62,29.93,10.0,NNW,12.7,-,N/A,,Partly Cloudy,330,2012-11-01 09:53:00
5:53 AM,43.0,30.9,62,29.94,10.0,NNW,12.7,19.6,N/A,,Overcast,340,2012-11-01 10:53:00
6:53 AM,43.0,32.0,65,29.96,10.0,NNW,12.7,-,N/A,,Overcast,340,2012-11-01 11:53:00
7:53 AM,41.0,33.1,73,29.98,10.0,NNW,12.7,18.4,N/A,,Scattered Clouds,340,2012-11-01 12:53:00
8:53 AM,42.1,32.0,67,29.99,10.0,North,10.4,-,N/A,,Clear,350,2012-11-01 13:53:00
9:48 AM,42.8,30.2,61,29.99,10.0,NNW,15.0,-,N/A,,Overcast,330,2012-11-01 14:48:00
10:53 AM,44.1,28.0,53,30.00,10.0,NNW,10.4,20.7,N/A,,Scattered Clouds,340,2012-11-01 15:53:00
11:53 AM,45.0,28.0,52,30.01,10.0,NNW,11.5,17.3,N/A,,Scattered Clouds,330,2012-11-01 16:53:00
12:53 PM,45.0,27.0,49,30.00,10.0,NNW,9.2,18.4,N/A,,Scattered Clouds,330,2012-11-01 17:53:00
1:53 PM,43.0,26.1,51,29.99,10.0,NNW,10.4,-,N/A,,Scattered Clouds,330,2012-11-01 18:53:00
2:53 PM,46.9,27.0,46,29.97,10.0,NNW,11.5,17.3,N/A,,Partly Cloudy,340,2012-11-01 19:53:00
3:53 PM,45.0,25.0,46,29.98,10.0,NNW,10.4,-,N/A,,Clear,330,2012-11-01 20:53:00
4:53 PM,44.1,25.0,47,29.99,10.0,NNW,11.5,-,N/A,,Clear,340,2012-11-01 21:53:00
5:53 PM,42.1,24.1,49,30.00,10.0,NNW,9.2,-,N/A,,Clear,330,2012-11-01 22:53:00
6:53 PM,37.9,23.0,55,30.03,10.0,North,8.1,-,N/A,,Clear,10,2012-11-01 23:53:00
7:53 PM,37.0,21.9,54,30.04,10.0,North,6.9,-,N/A,,Clear,10,2012-11-02 00:53:00
8:53 PM,35.1,21.9,59,30.04,10.0,North,6.9,-,N/A,,Clear,10,2012-11-02 01:53:00
9:53 PM,33.1,21.9,64,30.05,10.0,North,5.8,-,N/A,,Clear,10,2012-11-02 02:53:00
10:53 PM,32.0,21.9,66,30.06,10.0,North,4.6,-,N/A,,Clear,360,2012-11-02 03:53:00
11:53 PM,30.9,21.9,69,30.06,10.0,North,3.5,-,N/A,,Clear,350,2012-11-02 04:53:00